Regional Weather Roundup
Issued by NWS Newport/Morehead, NC

Current Version | Previous Version | Text Only | Print | Product List | Glossary On
Versions: 1 2 3 4 5 6 7 8 9 10 11 12 13 14 15 16 17 18 19 20 21 22 23 24 25 26 27 28 29 30 31 32 33 34 35 36 37 38 39 40 41 42 43 44 45 46 47 48 49 50
000
ASUS42 KMHX 220414
RWRMHX
WEATHER ROUNDUP FOR EASTERN NORTH CAROLINA
NATIONAL WEATHER SERVICE NEWPORT/MOREHEAD CITY NC
1100 PM EST SUN JAN 21 2018

NOTE: "FAIR" INDICATES FEW OR NO CLOUDS BELOW 12,000 FEET
WITH NO SIGNIFICANT WEATHER AND/OR OBSTRUCTIONS TO VISIBILITY

NCZ015>017-031-032-045>047-102-103-220500-
NORTH COAST

CITY           SKY/WX    TMP DP  RH WIND       PRES   REMARKS
EDENTON        FAIR      43  38  82 CALM      30.25S
ELIZABETH CITY FAIR      42  41  96 CALM      30.24F
KITTY HAWK     FAIR      44  35  72 CALM      30.22F
MANTEO         FAIR      39  36  89 CALM      30.24F

$$

NCZ045>047-081-094-103-104-220500-
CENTRAL COAST

CITY           SKY/WX    TMP DP  RH WIND       PRES   REMARKS
FRISCO         NOT AVBL

$$

NCZ095-097-098-100-101-220500-
SOUTHERN COAST

CITY           SKY/WX    TMP DP  RH WIND       PRES   REMARKS
BEAUFORT       FAIR      39  39 100 CALM      30.24S
CEDAR ISLAND   NOT AVBL
JACKSONVILLE   FAIR      42  40  92 CALM      30.22F
PINEY ISLAND   NOT AVBL
WILMINGTON     FAIR      41  38  89 CALM      30.23F


$$

NCZ011>013-027>030-043-044-078>080-089-090>093-098-220500-
COASTAL PLAIN

CITY           SKY/WX    TMP DP  RH WIND       PRES   REMARKS
AHOSKIE        FAIR      44  35  68 CALM      30.23S
CLINTON        FAIR      45  43  94 CALM      30.23R
ELIZABETHTOWN  NOT AVBL
GOLDSBORO      FAIR      44  40  84 CALM      30.20F
GREENVILLE     FAIR      43  37  81 CALM      30.23F
HAVELOCK       NOT AVBL
KENANSVILLE    FAIR      41  39  93 CALM      30.23S
KINSTON        FAIR      43  42  93 CALM      30.22F
NEW BERN       FAIR      40  38  93 CALM      30.24S
RICHLANDS      FAIR      41  38  89 CALM      30.23F
ROCKY MOUNT    NOT AVBL
WASHINGTON     FAIR      42  38  86 CALM      30.23F
WHITEVILLE     FAIR      45  38  78 CALM      30.22S

$$

AMZ130-135-150-152-154-156-158-170-250-252-270-ANZ085-086-088-633-658-670-220500-
MARINE OBSERVATIONS

STATION/POSITION TIME  TEMP    WIND        PRES    WAVE   SWELL
                       AIR SEA DIR/SP/G            HT/PER HT/PER
                 (UTC) (F)     (DEG/KT/KT) (MB)    (FT/S) (FT/S)
CHESAPEAKE LIGHT NOT AVBL
64 E VA BEACH    0350   54 58  250/  6/  6 1024.0    1/11   2/11
DUCK             0336   48 42  240/  8/  8 1023.4
2 E DUCK         0400      42                N/A     1/11
OREGON INLET     0336   44 43  270/  3/  4 1024.0
13E OREGON INLT  0348      41                N/A     1/10   2/10
HATTERAS CG      0336   47 50   20/  3/  4 1023.7
DIAMOND BUOY     0400   60 72  360/  4/  8 1024.0
CAPE LOOKOUT     0400           60/  1/  1 1024.0
BEAUFORT LAB     0336   44 47   CALM  /  1 1024.1
30 SE NEW RVR IN 0308   59 60  230/  2/  2 1024.2
30 SE NEW RVR IN 0400      60                N/A     2/11
27 SE WRIGHTSVLE 0308   59 61  230/  6/  8 1024.2
5 SE WRIGHTSVLE  0308   48 46  250/  2/  4 1023.8
225 S CAPE HAT   0350   65 70  100/  2/  4 1024.6    3/10   2/10
41 SE CHARLESTON 0400   64 70  190/  8/ 10 1023.2

$$



USA.gov is the U.S. government's official web portal to all federal, state and local government web resources and services.